TRA219 EDDF-EGLL

Flight info

Callsign TRA219
Flight time 1h 14m
Altitude 36000
Route OBOKA3M/25C OBOKA Z29 TORNU DCT ABNED L980 LOGAN
Aircraft A320/M-SDE3FGHIRWY/LB1

Departure

Time 2026-04-14 08:07
Airport Frankfurt Main Airport (EDDF)

Arrival

Time 2026-04-14 09:21
Airport London Heathrow Airport (EGLL)
Time Latitude Longitude Altitude Speed Heading
2026-04-14 07:26 50.04410 8.56219 346 ft 0 kts 159°
2026-04-14 07:56 50.04411 8.56219 345 ft 2 kts 159°
2026-04-14 07:56 50.04427 8.56209 345 ft 2 kts 159°
2026-04-14 07:57 50.04443 8.56200 353 ft 2 kts 159°
2026-04-14 07:57 50.04460 8.56197 351 ft 2 kts 224°
2026-04-14 07:57 50.04465 8.56205 345 ft 0 kts 250°
2026-04-14 08:01 50.04460 8.56183 355 ft 7 kts 250°
2026-04-14 08:01 50.04434 8.56077 350 ft 12 kts 241°
2026-04-14 08:01 50.04351 8.56050 347 ft 16 kts 161°
2026-04-14 08:01 50.04276 8.56177 349 ft 17 kts 133°
2026-04-14 08:02 50.04163 8.56250 349 ft 15 kts 154°
2026-04-14 08:02 50.04159 8.56406 352 ft 17 kts 70°
2026-04-14 08:02 50.04202 8.56591 352 ft 20 kts 70°
2026-04-14 08:02 50.04253 8.56800 348 ft 15 kts 69°
2026-04-14 08:03 50.04263 8.56841 346 ft 4 kts 69°
2026-04-14 08:03 50.04291 8.56959 348 ft 19 kts 70°
2026-04-14 08:03 50.04303 8.57007 353 ft 8 kts 70°
2026-04-14 08:03 50.04313 8.57050 354 ft 6 kts 70°
2026-04-14 08:04 50.04327 8.57110 350 ft 14 kts 70°
2026-04-14 08:04 50.04368 8.57284 352 ft 0 kts 70°
2026-04-14 08:04 50.04394 8.57396 351 ft 21 kts 69°
2026-04-14 08:04 50.04471 8.57708 356 ft 36 kts 69°
2026-04-14 08:05 50.04568 8.58100 347 ft 40 kts 69°
2026-04-14 08:05 50.04647 8.58434 353 ft 24 kts 70°
2026-04-14 08:05 50.04594 8.58595 348 ft 9 kts 163°
2026-04-14 08:05 50.04575 8.58603 345 ft 2 kts 163°
2026-04-14 08:06 50.04473 8.58546 349 ft 32 kts 229°
2026-04-14 08:06 50.04398 8.58252 348 ft 63 kts 251°
2026-04-14 08:06 50.04163 8.57247 355 ft 131 kts 249°
2026-04-14 08:06 50.03667 8.55161 733 ft 171 kts 251°
2026-04-14 08:07 50.03218 8.53322 1074 ft 192 kts 251°
2026-04-14 08:07 50.02737 8.51316 1685 ft 202 kts 251°
2026-04-14 08:07 50.01979 8.49447 2451 ft 211 kts 226°
2026-04-14 08:07 50.00719 8.48216 3249 ft 220 kts 198°
2026-04-14 08:08 49.99204 8.47784 4199 ft 223 kts 188°
2026-04-14 08:08 49.98154 8.47555 4837 ft 223 kts 188°
2026-04-14 08:08 49.96626 8.47220 5671 ft 224 kts 189°
2026-04-14 08:08 49.95078 8.46639 6263 ft 238 kts 197°
2026-04-14 08:09 49.93451 8.45880 6796 ft 254 kts 201°
2026-04-14 08:09 49.91863 8.44613 7081 ft 258 kts 218°
2026-04-14 08:09 49.90582 8.42654 7141 ft 254 kts 235°
2026-04-14 08:09 49.89669 8.40358 7154 ft 253 kts 242°
2026-04-14 08:10 49.88931 8.37898 7148 ft 253 kts 255°
2026-04-14 08:10 49.88642 8.35178 7162 ft 264 kts 270°
2026-04-14 08:10 49.88759 8.32301 7162 ft 270 kts 276°
2026-04-14 08:10 49.88924 8.29396 7160 ft 270 kts 279°
2026-04-14 08:11 49.89385 8.26580 7165 ft 270 kts 293°
2026-04-14 08:11 49.90303 8.24021 7683 ft 271 kts 307°
2026-04-14 08:11 49.91439 8.21671 8611 ft 274 kts 306°
2026-04-14 08:11 49.92580 8.19271 9491 ft 278 kts 305°
2026-04-14 08:12 49.93728 8.16848 10342 ft 281 kts 306°
2026-04-14 08:12 49.95120 8.14611 10828 ft 298 kts 316°
2026-04-14 08:12 49.96737 8.12416 11036 ft 322 kts 317°
2026-04-14 08:12 49.98500 8.10060 11218 ft 344 kts 317°
2026-04-14 08:13 50.00346 8.07612 11722 ft 353 kts 317°
2026-04-14 08:13 50.02227 8.05119 12352 ft 358 kts 317°
2026-04-14 08:13 50.04110 8.02616 13002 ft 362 kts 317°
2026-04-14 08:13 50.06035 8.00046 13673 ft 367 kts 317°
2026-04-14 08:14 50.07980 7.97443 14313 ft 371 kts 317°
2026-04-14 08:14 50.09944 7.94807 14933 ft 374 kts 317°
2026-04-14 08:14 50.11929 7.92134 15524 ft 378 kts 317°
2026-04-14 08:14 50.13923 7.89445 16112 ft 381 kts 317°
2026-04-14 08:15 50.15935 7.86728 16716 ft 384 kts 316°
2026-04-14 08:15 50.17963 7.83985 17324 ft 388 kts 316°
2026-04-14 08:15 50.20008 7.81215 17953 ft 391 kts 317°
2026-04-14 08:15 50.22072 7.78422 18654 ft 392 kts 318°
2026-04-14 08:16 50.24147 7.75643 19250 ft 395 kts 320°
2026-04-14 08:16 50.26404 7.73277 19795 ft 400 kts 330°
2026-04-14 08:16 50.28941 7.71424 20340 ft 405 kts 335°
2026-04-14 08:16 50.31538 7.69663 20859 ft 409 kts 335°
2026-04-14 08:17 50.34159 7.67877 21356 ft 413 kts 334°
2026-04-14 08:17 50.36810 7.66060 21840 ft 416 kts 334°
2026-04-14 08:17 50.39476 7.64228 22299 ft 420 kts 334°
2026-04-14 08:17 50.42164 7.62381 22744 ft 424 kts 334°
2026-04-14 08:18 50.44876 7.60516 23203 ft 428 kts 334°
2026-04-14 08:18 50.47611 7.58632 23646 ft 431 kts 334°
2026-04-14 08:18 50.50376 7.56719 24011 ft 434 kts 334°
2026-04-14 08:18 50.53147 7.54800 24394 ft 436 kts 334°
2026-04-14 08:19 50.55899 7.52773 24763 ft 437 kts 328°
2026-04-14 08:19 50.58476 7.50245 25133 ft 437 kts 324°
2026-04-14 08:19 50.61029 7.47628 25502 ft 439 kts 324°
2026-04-14 08:19 50.63601 7.44993 25939 ft 438 kts 326°
2026-04-14 08:20 50.66151 7.42378 26449 ft 437 kts 325°
2026-04-14 08:20 50.68700 7.39760 26863 ft 438 kts 325°
2026-04-14 08:20 50.71226 7.37066 27240 ft 439 kts 321°
2026-04-14 08:20 50.73508 7.33875 27596 ft 439 kts 312°
2026-04-14 08:21 50.75456 7.30165 27955 ft 439 kts 304°
2026-04-14 08:21 50.77034 7.26045 28168 ft 438 kts 296°
2026-04-14 08:21 50.78427 7.21758 28194 ft 439 kts 296°
2026-04-14 08:22 50.81219 7.13168 28193 ft 438 kts 296°
2026-04-14 08:22 50.84001 7.04590 28193 ft 438 kts 296°
2026-04-14 08:23 50.86767 6.96013 28191 ft 437 kts 296°
2026-04-14 08:23 50.89509 6.87483 28191 ft 437 kts 296°
2026-04-14 08:24 50.92265 6.78898 28189 ft 437 kts 296°
2026-04-14 08:24 50.95012 6.70302 28190 ft 437 kts 296°
2026-04-14 08:25 50.97753 6.61700 28188 ft 437 kts 296°
2026-04-14 08:25 51.00486 6.53088 28193 ft 435 kts 296°
2026-04-14 08:26 51.03204 6.44503 28192 ft 435 kts 296°
2026-04-14 08:26 51.05911 6.35926 28188 ft 434 kts 296°
2026-04-14 08:27 51.08616 6.27326 28186 ft 434 kts 296°
2026-04-14 08:27 51.11298 6.18729 28182 ft 434 kts 296°
2026-04-14 08:28 51.13890 6.10069 28182 ft 433 kts 290°
2026-04-14 08:28 51.15501 6.00876 28186 ft 433 kts 285°
2026-04-14 08:29 51.17006 5.91579 28186 ft 433 kts 285°
2026-04-14 08:29 51.18613 5.82350 28188 ft 432 kts 291°
2026-04-14 08:30 51.20946 5.73528 28197 ft 431 kts 293°
2026-04-14 08:30 51.23274 5.64704 28197 ft 430 kts 293°
2026-04-14 08:31 51.25576 5.55903 28200 ft 429 kts 293°
2026-04-14 08:31 51.29010 5.42785 28192 ft 429 kts 293°
2026-04-14 08:32 51.31309 5.33980 28187 ft 428 kts 293°
2026-04-14 08:32 51.33584 5.25179 28193 ft 428 kts 293°
2026-04-14 08:33 51.35854 5.16382 28202 ft 428 kts 293°
2026-04-14 08:33 51.38112 5.07587 28205 ft 427 kts 293°
2026-04-14 08:34 51.40364 4.98779 28204 ft 426 kts 293°
2026-04-14 08:34 51.42606 4.89992 28203 ft 426 kts 293°
2026-04-14 08:35 51.44841 4.81191 28195 ft 425 kts 293°
2026-04-14 08:35 51.47064 4.72415 28193 ft 424 kts 294°
2026-04-14 08:36 51.49263 4.63705 28195 ft 423 kts 293°
2026-04-14 08:36 51.51465 4.54958 28209 ft 422 kts 293°
2026-04-14 08:37 51.53658 4.46205 28199 ft 421 kts 293°
2026-04-14 08:37 51.55832 4.37468 28192 ft 421 kts 293°
2026-04-14 08:38 51.57995 4.28760 28187 ft 421 kts 293°
2026-04-14 08:38 51.60152 4.20003 28184 ft 421 kts 293°
2026-04-14 08:39 51.62293 4.11270 27342 ft 418 kts 293°
2026-04-14 08:39 51.63371 4.06900 26231 ft 422 kts 292°
2026-04-14 08:39 51.64455 4.02489 25550 ft 423 kts 292°
2026-04-14 08:40 51.65543 3.98045 25358 ft 429 kts 292°
2026-04-14 08:40 51.66639 3.93557 25149 ft 432 kts 292°
2026-04-14 08:40 51.67735 3.89047 24965 ft 433 kts 292°
2026-04-14 08:40 51.68831 3.84537 24761 ft 428 kts 292°
2026-04-14 08:41 51.69902 3.80113 24566 ft 421 kts 292°
2026-04-14 08:41 51.70960 3.75735 24374 ft 418 kts 292°
2026-04-14 08:41 51.72015 3.71359 24197 ft 417 kts 291°
2026-04-14 08:41 51.73056 3.67026 24169 ft 416 kts 291°
2026-04-14 08:42 51.74102 3.62674 24175 ft 416 kts 291°
2026-04-14 08:42 51.75152 3.58302 24176 ft 416 kts 291°
2026-04-14 08:42 51.76195 3.53947 24184 ft 416 kts 291°
2026-04-14 08:42 51.77236 3.49597 24177 ft 415 kts 291°
2026-04-14 08:43 51.78276 3.45251 24175 ft 415 kts 291°
2026-04-14 08:43 51.79315 3.40903 24176 ft 415 kts 291°
2026-04-14 08:43 51.80348 3.36556 24176 ft 414 kts 291°
2026-04-14 08:43 51.81372 3.32216 24177 ft 413 kts 291°
2026-04-14 08:44 51.82392 3.27877 24174 ft 413 kts 291°
2026-04-14 08:44 51.83408 3.23519 24175 ft 413 kts 290°
2026-04-14 08:44 51.84156 3.19036 24175 ft 414 kts 282°
2026-04-14 08:44 51.84500 3.14412 24177 ft 416 kts 274°
2026-04-14 08:45 51.84434 3.09734 24177 ft 418 kts 266°
2026-04-14 08:45 51.84127 3.05064 24177 ft 418 kts 266°
2026-04-14 08:45 51.83823 3.00445 24177 ft 418 kts 266°
2026-04-14 08:45 51.83520 2.95774 24177 ft 418 kts 266°
2026-04-14 08:46 51.83213 2.91049 24172 ft 418 kts 266°
2026-04-14 08:46 51.82908 2.86367 24177 ft 417 kts 266°
2026-04-14 08:46 51.82603 2.81707 24177 ft 417 kts 266°
2026-04-14 08:46 51.82294 2.77049 24177 ft 417 kts 266°
2026-04-14 08:47 51.81978 2.72392 24178 ft 417 kts 266°
2026-04-14 08:47 51.81658 2.67736 24176 ft 417 kts 266°
2026-04-14 08:47 51.81334 2.63081 24177 ft 417 kts 266°
2026-04-14 08:47 51.81010 2.58425 24177 ft 417 kts 266°
2026-04-14 08:48 51.80692 2.53841 24178 ft 417 kts 266°
2026-04-14 08:48 51.80368 2.49168 24174 ft 417 kts 266°
2026-04-14 08:48 51.80044 2.44514 24174 ft 417 kts 266°
2026-04-14 08:48 51.79716 2.39861 24167 ft 417 kts 266°
2026-04-14 08:49 51.79386 2.35215 24177 ft 416 kts 266°
2026-04-14 08:49 51.79052 2.30572 24169 ft 416 kts 266°
2026-04-14 08:49 51.78715 2.25930 24156 ft 416 kts 266°
2026-04-14 08:49 51.78380 2.21263 24166 ft 417 kts 266°
2026-04-14 08:50 51.78077 2.16583 24172 ft 418 kts 267°
2026-04-14 08:50 51.77805 2.11913 24178 ft 417 kts 268°
2026-04-14 08:50 51.77546 2.07237 24178 ft 418 kts 268°
2026-04-14 08:50 51.77288 2.02577 24176 ft 418 kts 268°
2026-04-14 08:51 51.77022 1.97901 24175 ft 418 kts 268°
2026-04-14 08:51 51.76751 1.93281 23802 ft 412 kts 267°
2026-04-14 08:51 51.76472 1.88696 23005 ft 409 kts 267°
2026-04-14 08:51 51.76192 1.84158 22349 ft 403 kts 266°
2026-04-14 08:52 51.75913 1.79676 22047 ft 403 kts 266°
2026-04-14 08:52 51.75632 1.75173 21677 ft 403 kts 266°
2026-04-14 08:52 51.75351 1.70680 21312 ft 402 kts 266°
2026-04-14 08:52 51.74971 1.66222 20950 ft 401 kts 260°
2026-04-14 08:53 51.74222 1.61873 20595 ft 401 kts 252°
2026-04-14 08:53 51.73103 1.57738 20246 ft 401 kts 244°
2026-04-14 08:53 51.71659 1.53952 19892 ft 401 kts 237°
2026-04-14 08:53 51.70065 1.50277 19554 ft 399 kts 237°
2026-04-14 08:54 51.68481 1.46613 19221 ft 397 kts 237°
2026-04-14 08:54 51.66910 1.42967 18881 ft 394 kts 237°
2026-04-14 08:54 51.65362 1.39368 18554 ft 391 kts 237°
2026-04-14 08:54 51.64337 1.36992 18317 ft 390 kts 237°
2026-04-14 08:55 51.62792 1.33419 17921 ft 388 kts 237°
2026-04-14 08:55 51.61255 1.29872 17509 ft 385 kts 237°
2026-04-14 08:55 51.59226 1.25200 16944 ft 383 kts 237°
2026-04-14 08:55 51.57704 1.21704 16526 ft 381 kts 237°
2026-04-14 08:56 51.56188 1.18229 16107 ft 379 kts 237°
2026-04-14 08:56 51.55165 1.15883 15834 ft 378 kts 237°
2026-04-14 08:56 51.53652 1.12417 15423 ft 377 kts 237°
2026-04-14 08:56 51.52150 1.08985 15029 ft 375 kts 237°
2026-04-14 08:57 51.50670 1.05610 14648 ft 373 kts 237°
2026-04-14 08:57 51.49178 1.02214 14262 ft 371 kts 237°
2026-04-14 08:57 51.47694 0.98836 13866 ft 370 kts 237°
2026-04-14 08:57 51.46212 0.95460 13419 ft 368 kts 236°
2026-04-14 08:58 51.44743 0.92124 13012 ft 365 kts 236°
2026-04-14 08:58 51.43285 0.88816 12592 ft 362 kts 236°
2026-04-14 08:58 51.41833 0.85520 12174 ft 359 kts 236°
2026-04-14 08:58 51.40397 0.82263 11770 ft 357 kts 236°
2026-04-14 08:59 51.38984 0.79067 11370 ft 354 kts 236°
2026-04-14 08:59 51.37564 0.75861 10960 ft 352 kts 236°
2026-04-14 08:59 51.36152 0.72677 10575 ft 350 kts 236°
2026-04-14 08:59 51.34739 0.69498 10177 ft 347 kts 236°
2026-04-14 09:00 51.33354 0.66386 9758 ft 339 kts 236°
2026-04-14 09:00 51.32065 0.63300 9240 ft 329 kts 243°
2026-04-14 09:00 51.31177 0.59976 8808 ft 321 kts 253°
2026-04-14 09:00 51.30741 0.56526 8387 ft 315 kts 264°
2026-04-14 09:01 51.30729 0.53071 7978 ft 311 kts 274°
2026-04-14 09:01 51.30908 0.49652 7567 ft 307 kts 274°
2026-04-14 09:01 51.31080 0.46255 7168 ft 303 kts 273°
2026-04-14 09:01 51.31240 0.42958 7031 ft 291 kts 273°
2026-04-14 09:02 51.31391 0.39818 7046 ft 274 kts 272°
2026-04-14 09:02 51.31533 0.36853 7045 ft 264 kts 273°
2026-04-14 09:02 51.31672 0.33912 7053 ft 264 kts 272°
2026-04-14 09:02 51.31810 0.30993 7055 ft 265 kts 273°
2026-04-14 09:03 51.31947 0.28086 7062 ft 266 kts 273°
2026-04-14 09:03 51.32087 0.25156 7066 ft 263 kts 272°
2026-04-14 09:03 51.32187 0.22220 7069 ft 264 kts 271°
2026-04-14 09:03 51.32235 0.19286 7075 ft 264 kts 270°
2026-04-14 09:04 51.32276 0.16371 7079 ft 261 kts 269°
2026-04-14 09:04 51.32316 0.13473 7084 ft 260 kts 269°
2026-04-14 09:04 51.32355 0.10649 7089 ft 258 kts 270°
2026-04-14 09:04 51.32395 0.07720 7099 ft 264 kts 269°
2026-04-14 09:05 51.32434 0.04801 7097 ft 263 kts 270°
2026-04-14 09:05 51.32475 0.01917 7102 ft 254 kts 270°
2026-04-14 09:05 51.32514 -0.00838 7135 ft 240 kts 269°
2026-04-14 09:05 51.32550 -0.03453 7139 ft 233 kts 269°
2026-04-14 09:06 51.32582 -0.05992 7136 ft 229 kts 269°
2026-04-14 09:06 51.32616 -0.08550 7137 ft 232 kts 268°
2026-04-14 09:06 51.32649 -0.11129 7132 ft 231 kts 268°
2026-04-14 09:06 51.32681 -0.13681 7138 ft 230 kts 269°
2026-04-14 09:07 51.32711 -0.16229 7130 ft 229 kts 268°
2026-04-14 09:07 51.32742 -0.18776 7127 ft 228 kts 269°
2026-04-14 09:07 51.32774 -0.21319 7131 ft 231 kts 269°
2026-04-14 09:07 51.32805 -0.23886 7135 ft 232 kts 268°
2026-04-14 09:08 51.32833 -0.26438 7131 ft 229 kts 269°
2026-04-14 09:08 51.32865 -0.28994 7130 ft 230 kts 269°
2026-04-14 09:08 51.32896 -0.31564 7142 ft 232 kts 269°
2026-04-14 09:08 51.32928 -0.34158 7134 ft 233 kts 269°
2026-04-14 09:09 51.32958 -0.36752 7135 ft 231 kts 269°
2026-04-14 09:09 51.32987 -0.39321 7135 ft 230 kts 268°
2026-04-14 09:09 51.33016 -0.41881 7133 ft 231 kts 269°
2026-04-14 09:09 51.33046 -0.44441 7137 ft 232 kts 269°
2026-04-14 09:10 51.33074 -0.47005 7135 ft 229 kts 268°
2026-04-14 09:10 51.33101 -0.49551 7131 ft 229 kts 269°
2026-04-14 09:10 51.33129 -0.52116 7132 ft 231 kts 269°
2026-04-14 09:10 51.33165 -0.54685 7126 ft 230 kts 274°
2026-04-14 09:11 51.33488 -0.57222 7138 ft 235 kts 282°
2026-04-14 09:11 51.33924 -0.59726 7134 ft 236 kts 284°
2026-04-14 09:11 51.34374 -0.62253 7132 ft 234 kts 282°
2026-04-14 09:11 51.34823 -0.64757 7131 ft 235 kts 281°
2026-04-14 09:12 51.35265 -0.67254 7022 ft 232 kts 283°
2026-04-14 09:12 51.35710 -0.69732 6700 ft 233 kts 284°
2026-04-14 09:12 51.36158 -0.72206 6371 ft 235 kts 283°
2026-04-14 09:12 51.36604 -0.74694 6176 ft 229 kts 282°
2026-04-14 09:13 51.37037 -0.77104 6043 ft 222 kts 282°
2026-04-14 09:13 51.37451 -0.79410 5935 ft 210 kts 282°
2026-04-14 09:13 51.37846 -0.81579 5796 ft 197 kts 283°
2026-04-14 09:13 51.38588 -0.83387 5563 ft 199 kts 318°
2026-04-14 09:14 51.39887 -0.84158 5186 ft 203 kts 351°
2026-04-14 09:14 51.41305 -0.84264 4761 ft 205 kts 357°
2026-04-14 09:14 51.42734 -0.84268 4328 ft 206 kts 359°
2026-04-14 09:14 51.44172 -0.84231 3905 ft 206 kts 360°
2026-04-14 09:15 51.45609 -0.84188 3492 ft 206 kts
2026-04-14 09:15 51.47029 -0.84132 3089 ft 207 kts
2026-04-14 09:15 51.48430 -0.83682 2976 ft 207 kts 28°
2026-04-14 09:15 51.49416 -0.82190 2990 ft 187 kts 67°
2026-04-14 09:16 51.49814 -0.80298 2979 ft 172 kts 98°
2026-04-14 09:16 51.49566 -0.78497 3002 ft 164 kts 116°
2026-04-14 09:16 51.49112 -0.76860 2990 ft 157 kts 134°
2026-04-14 09:16 51.48375 -0.75593 3000 ft 158 kts 131°
2026-04-14 09:17 51.48022 -0.73872 3006 ft 167 kts 108°
2026-04-14 09:17 51.47847 -0.72048 3002 ft 165 kts 106°
2026-04-14 09:17 51.47685 -0.70224 3007 ft 165 kts 106°
2026-04-14 09:17 51.47532 -0.68393 3000 ft 168 kts 99°
2026-04-14 09:18 51.47604 -0.66504 3004 ft 169 kts 95°
2026-04-14 09:18 51.47647 -0.64613 3005 ft 170 kts 96°
2026-04-14 09:18 51.47675 -0.62701 2685 ft 175 kts 96°
2026-04-14 09:18 51.47726 -0.60783 2271 ft 168 kts 94°
2026-04-14 09:19 51.47778 -0.58939 1844 ft 162 kts 95°
2026-04-14 09:19 51.47787 -0.57147 1554 ft 160 kts 97°
2026-04-14 09:19 51.47754 -0.55376 1138 ft 156 kts 97°
2026-04-14 09:19 51.47748 -0.53686 822 ft 145 kts 95°
2026-04-14 09:20 51.47753 -0.52105 558 ft 138 kts 95°
2026-04-14 09:20 51.47743 -0.50570 361 ft 138 kts 93°
2026-04-14 09:20 51.47753 -0.49019 190 ft 138 kts 95°
2026-04-14 09:20 51.47756 -0.47525 88 ft 118 kts 93°
2026-04-14 09:21 51.47751 -0.46697 89 ft 32 kts 89°
2026-04-14 09:21 51.47747 -0.46315 88 ft 36 kts 92°
2026-04-14 09:21 51.47653 -0.46087 90 ft 9 kts 149°
2026-04-14 09:21 51.47651 -0.46085 89 ft 0 kts 149°
2026-04-14 09:22 51.47628 -0.46071 88 ft 11 kts 162°
2026-04-14 09:22 51.47526 -0.46032 87 ft 19 kts 143°
2026-04-14 09:22 51.47508 -0.45869 88 ft 18 kts 87°
2026-04-14 09:23 51.47512 -0.45634 89 ft 24 kts 91°
2026-04-14 09:23 51.47503 -0.45338 87 ft 29 kts 92°
2026-04-14 09:23 51.47505 -0.45010 89 ft 30 kts 87°
2026-04-14 09:23 51.47510 -0.44667 89 ft 31 kts 90°
2026-04-14 09:24 51.47506 -0.44335 87 ft 28 kts 89°
2026-04-14 09:24 51.47493 -0.44095 91 ft 15 kts 128°
2026-04-14 09:24 51.47392 -0.44056 86 ft 16 kts 178°
2026-04-14 09:24 51.47272 -0.44056 89 ft 17 kts 180°
2026-04-14 09:25 51.47213 -0.44089 88 ft 5 kts 244°
2026-04-14 09:25 51.47189 -0.44147 88 ft 8 kts 244°
2026-04-14 09:25 51.47187 -0.44209 86 ft 0 kts 270°
2026-04-14 09:25 51.47187 -0.44214 86 ft 0 kts 270°